Torna al catalogo

SL-6 R/B(2)

AttivoHEO
NORAD 17333·ROCKET BODY·🇷🇺 Russia

Lanciato Jan 22, 1987 da Plesetsk Cosmodrome

Loading…

Prossimi Passaggi (prossime 24 ore)

TLE

AggiornatoSource: Space-Track

Epoca: Sep 8, 2026, 03:48 UTC

1 17333U 87008D   26251.15879316 -.00000863  00000-0  73874-3 0  9996
2 17333  63.2908  22.6324 7430115 251.7447  20.8573  1.97102009285253

Traccia SL-6 R/B(2) in tempo reale con AllMySat

Download on the App Store